Natchitoches, LA

8:31 AM CDT on October 18, 2017 (GMT -0500)
Natchitoches Regional

Weather History for KIER - January, 2014

Change the Weather History Date:

Friday, January 17, 2014

  Actual Average Record
Temperature  
Mean Temperature 42 °F -  
Max Temperature 55 °F 57 °F 87 °F (2002)
Min Temperature 28 °F 36 °F 13 °F (1982)
Degree Days  
Heating Degree Days 24    
Moisture  
Dew Point 22 °F    
Average Humidity 45    
Maximum Humidity 84    
Minimum Humidity 19    
Precipitation  
Precipitation 0.00 in - - ()
Sea Level Pressure  
Sea Level Pressure 30.23 in    
Wind  
Wind Speed 8 mph (NW)    
Max Wind Speed 17 mph    
Max Gust Speed 23 mph    
Visibility 10 miles    
Events      
Averages and records for this station are not official NWS values.
T = Trace of Precipitation, MM = Missing Value Source: NWS Daily Summary

Daily Weather History Graph

Daily Weather History Graph

Search for Another Location

Airport or City:

Trip Planner

Search our weather history database for the weather conditions in past years. The results will help you decide how hot, cold, wet, or windy it might be!

Date:

Astronomy

Jan. 17, 2014 Rise Set
Actual Time 7:12 AM CST 5:33 PM CST
Civil Twilight 6:45 AM CST 5:59 PM CST
Nautical Twilight 6:16 AM CST 6:29 PM CST
Astronomical Twilight 5:46 AM CST 6:58 PM CST
Moon 7:11 PM CST (1/17) 7:48 AM CST (1/17)
Length of Visible Light 11h 13m
Length of Day
10h 20m
Full, 98% of the Moon is Illuminated
Jan 17
Full
Jan 23
Last Quarter
Jan 30
New
Feb 6
First Quarter
Feb 14
Full

Hourly Weather History & Observations

Time (CST) Temp. Windchill Dew Point Humidity Pressure Visibility Wind Dir Wind Speed Gust Speed Precip Events Conditions
12:15 AM 51.8 °F - 29.1 °F 42% 30.12 in 10.0 mi WNW 10.4 mph - N/A   Clear
12:35 AM 50.2 °F - 29.1 °F 44% 30.12 in 10.0 mi WNW 9.2 mph - N/A   Clear
12:55 AM 49.5 °F - 28.6 °F 45% 30.12 in 10.0 mi WNW 9.2 mph - N/A   Clear
1:15 AM 47.7 °F - 28.6 °F 48% 30.12 in 10.0 mi WNW 6.9 mph - N/A   Clear
1:35 AM 46.6 °F - 27.5 °F 47% 30.13 in 10.0 mi West 4.6 mph - N/A   Clear
1:55 AM 46.2 °F 45.0 °F 27.3 °F 48% 30.13 in 10.0 mi West 3.5 mph - N/A   Clear
2:15 AM 44.6 °F 43.1 °F 27.5 °F 51% 30.14 in 10.0 mi West 3.5 mph - N/A   Clear
2:35 AM 43.0 °F - 26.6 °F 52% 30.14 in 10.0 mi Calm Calm - N/A   Clear
2:55 AM 44.8 °F 43.3 °F 26.1 °F 48% 30.15 in 10.0 mi West 3.5 mph - N/A   Clear
3:15 AM 43.9 °F 41.3 °F 27.5 °F 53% 30.15 in 10.0 mi WNW 4.6 mph - N/A   Clear
3:35 AM 44.4 °F 41.2 °F 27.1 °F 51% 30.16 in 10.0 mi WNW 5.8 mph - N/A   Clear
3:55 AM 43.7 °F 40.3 °F 26.6 °F 51% 30.16 in 10.0 mi WNW 5.8 mph - N/A   Clear
4:15 AM 43.3 °F 40.7 °F 25.9 °F 50% 30.17 in 10.0 mi WNW 4.6 mph - N/A   Clear
4:35 AM 42.4 °F 38.1 °F 25.7 °F 52% 30.18 in 10.0 mi NW 6.9 mph - N/A   Clear
4:55 AM 42.8 °F 39.3 °F 24.6 °F 49% 30.18 in 10.0 mi WNW 5.8 mph - N/A   Clear
5:15 AM 43.2 °F 41.5 °F 24.8 °F 48% 30.16 in 10.0 mi West 3.5 mph - N/A   Clear
5:35 AM 42.8 °F 38.6 °F 26.1 °F 52% 30.18 in 10.0 mi NW 6.9 mph - N/A   Scattered Clouds
5:55 AM 45.1 °F 41.4 °F 23.4 °F 42% 30.18 in 10.0 mi NW 6.9 mph - N/A   Mostly Cloudy
6:15 AM 46.0 °F 42.5 °F 21.7 °F 38% 30.18 in 10.0 mi NW 6.9 mph - N/A   Mostly Cloudy
6:35 AM 44.8 °F 40.4 °F 22.8 °F 42% 30.19 in 10.0 mi NW 8.1 mph - N/A   Scattered Clouds
6:55 AM 44.8 °F 41.0 °F 22.5 °F 41% 30.21 in 10.0 mi NW 6.9 mph - N/A   Scattered Clouds
7:15 AM 44.6 °F 41.4 °F 23.9 °F 44% 30.22 in 10.0 mi NW 5.8 mph - N/A   Scattered Clouds
7:35 AM 45.5 °F 41.3 °F 23.2 °F 41% 30.22 in 10.0 mi NW 8.1 mph - N/A   Mostly Cloudy
7:55 AM 45.9 °F 40.8 °F 24.1 °F 42% 30.23 in 10.0 mi NNW 10.4 mph - N/A   Mostly Cloudy
8:15 AM 46.4 °F 41.9 °F 24.1 °F 42% 30.24 in 10.0 mi NNW 9.2 mph - N/A   Mostly Cloudy
8:35 AM 46.9 °F - 23.4 °F 40% 30.24 in 10.0 mi NNW 10.4 mph 17.3 mph N/A   Overcast
8:55 AM 47.7 °F - 23.5 °F 39% 30.26 in 10.0 mi NNW 10.4 mph 16.1 mph N/A   Overcast
9:15 AM 48.6 °F - 21.9 °F 35% 30.26 in 10.0 mi NW 11.5 mph 19.6 mph N/A   Overcast
9:35 AM 48.6 °F - 23.4 °F 37% 30.28 in 10.0 mi NNW 12.7 mph 18.4 mph N/A   Scattered Clouds
9:55 AM 48.2 °F - 21.0 °F 34% 30.29 in 10.0 mi NNW 13.8 mph - N/A   Clear
10:15 AM 50.5 °F - 21.2 °F 32% 30.29 in 10.0 mi NNW 15.0 mph 21.9 mph N/A   Scattered Clouds
10:35 AM 49.1 °F - 20.1 °F 32% 30.29 in 10.0 mi NNW 15.0 mph 23.0 mph N/A   Clear
10:55 AM 51.3 °F - 20.8 °F 30% 30.29 in 10.0 mi NW 17.3 mph 23.0 mph N/A   Clear
11:15 AM 52.2 °F - 21.0 °F 30% 30.28 in 10.0 mi NNW 11.5 mph 20.7 mph N/A   Clear
11:35 AM 51.4 °F - 20.1 °F 29% 30.28 in 10.0 mi NNW 15.0 mph 23.0 mph N/A   Clear
11:55 AM 52.9 °F - 21.4 °F 29% 30.27 in 10.0 mi NNW 11.5 mph 21.9 mph N/A   Clear
12:15 PM 52.9 °F - 22.1 °F 30% 30.27 in 10.0 mi NNW 12.7 mph - N/A   Clear
12:35 PM 52.9 °F - 21.7 °F 30% 30.26 in 10.0 mi NNW 16.1 mph 20.7 mph N/A   Clear
12:55 PM 53.1 °F - 19.8 °F 27% 30.25 in 10.0 mi NNW 12.7 mph 17.3 mph N/A   Clear
1:15 PM 53.6 °F - 19.0 °F 26% 30.24 in 10.0 mi NNW 13.8 mph 20.7 mph N/A   Clear
1:35 PM 53.8 °F - 16.5 °F 23% 30.24 in 10.0 mi NW 13.8 mph 21.9 mph N/A   Clear
1:55 PM 54.1 °F - 16.9 °F 23% 30.24 in 10.0 mi NW 13.8 mph 19.6 mph N/A   Clear
2:15 PM 54.9 °F - 16.5 °F 22% 30.24 in 10.0 mi NNW 13.8 mph - N/A   Clear
2:35 PM 54.5 °F - 16.9 °F 23% 30.24 in 10.0 mi North 10.4 mph 19.6 mph N/A   Clear
2:55 PM 54.5 °F - 18.5 °F 24% 30.24 in 10.0 mi NNW 11.5 mph 18.4 mph N/A   Clear
3:15 PM 55.0 °F - 16.5 °F 22% 30.24 in 10.0 mi NNW 10.4 mph - N/A   Clear
3:35 PM 54.0 °F - 14.7 °F 21% 30.24 in 10.0 mi NNW 8.1 mph - N/A   Clear
3:55 PM 54.3 °F - 16.7 °F 23% 30.24 in 10.0 mi NW 12.7 mph 17.3 mph N/A   Clear
4:15 PM 52.9 °F - 11.1 °F 19% 30.24 in 10.0 mi NNW 16.1 mph 23.0 mph N/A   Clear
4:35 PM 52.5 °F - 14.9 °F 23% 30.25 in 10.0 mi NNW 11.5 mph - N/A   Clear
4:55 PM 51.1 °F - 13.1 °F 22% 30.26 in 10.0 mi NW 11.5 mph 17.3 mph N/A   Clear
5:15 PM 49.5 °F - 16.2 °F 27% 30.26 in 10.0 mi NNW 8.1 mph - N/A   Clear
5:35 PM 46.4 °F 42.4 °F 17.4 °F 31% 30.26 in 10.0 mi NW 8.1 mph - N/A   Clear
5:55 PM 44.2 °F 41.0 °F 19.4 °F 37% 30.27 in 10.0 mi NW 5.8 mph - N/A   Clear
6:15 PM 43.2 °F 40.5 °F 19.6 °F 39% 30.27 in 10.0 mi WNW 4.6 mph - N/A   Clear
6:35 PM 39.4 °F - 22.3 °F 50% 30.27 in 10.0 mi Calm Calm - N/A   Clear
6:55 PM 37.8 °F - 22.8 °F 55% 30.27 in 10.0 mi Calm Calm - N/A   Clear
7:15 PM 37.4 °F 34.9 °F 21.7 °F 53% 30.28 in 10.0 mi NW 3.5 mph - N/A   Clear
7:35 PM 36.5 °F - 24.4 °F 62% 30.28 in 10.0 mi Calm Calm - N/A   Clear
7:55 PM 33.8 °F - 26.6 °F 75% 30.28 in 10.0 mi Calm Calm - N/A   Clear
8:15 PM 32.9 °F 28.5 °F 23.4 °F 68% 30.29 in 10.0 mi WNW 4.6 mph - N/A   Clear
8:35 PM 33.3 °F - 22.8 °F 66% 30.29 in 10.0 mi Calm Calm - N/A   Clear
8:55 PM 32.4 °F - 25.2 °F 75% 30.29 in 10.0 mi Calm Calm - N/A   Clear
9:15 PM 31.6 °F - 26.8 °F 82% 30.29 in 10.0 mi Calm Calm - N/A   Clear
9:35 PM 31.1 °F - 22.3 °F 70% 30.29 in 10.0 mi Calm Calm - N/A   Clear
9:55 PM 31.1 °F - 23.0 °F 72% 30.28 in 10.0 mi Calm Calm - N/A   Clear
10:15 PM 30.9 °F - 24.4 °F 77% 30.28 in 10.0 mi Calm Calm - N/A   Clear
10:35 PM 30.0 °F - 24.6 °F 80% 30.28 in 10.0 mi Calm Calm - N/A   Clear
10:55 PM 30.2 °F - 25.0 °F 81% 30.27 in 10.0 mi Calm Calm - N/A   Clear
11:15 PM 29.3 °F - 24.4 °F 82% 30.27 in 10.0 mi Calm Calm - N/A   Clear
11:35 PM 28.2 °F - 24.1 °F 84% 30.27 in 10.0 mi Calm Calm - N/A   Clear
11:55 PM 28.8 °F - 23.4 °F 80% 30.27 in 10.0 mi Calm Calm - N/A   Clear